Location: Berlín
(4.4554°N, 72.3768°W)
Time: 19:11:09
(UTC+00:00)

Daily predictions for brighter satellites

Satellite Brightness Start Highest point End
(mag) Time Altitude Azimuth Time Altitude Azimuth Time Altitude Azimuth
Cosmos 2297 3.9 22:42:01 10° S 22:47:36 55° ESE 22:53:09 10° NNE
Cosmos 1975 Rocket 3.8 22:46:23 10° NNW 22:50:41 58° W 22:55:02 10° S
Cosmos 1464 Rocket 4.4 22:44:36 10° S 22:50:56 73° W 22:57:13 10° N
Ariane 3 Deb 3.3 22:48:12 10° WSW 22:51:10 37° S 22:55:21 10° E
Sich 1 Rocket 3.7 22:48:18 10° S 22:52:47 89° ESE 22:57:18 10° N
Ariane H10+ 1.4 22:53:05 10° SW 22:54:50 24° S 22:56:29 10° ESE
Ariane H10+ 2.8 22:46:43 10° W 22:55:29 78° N 22:58:23 10° E
GPS 2-12 Rocket1 3.2 22:51:02 10° WNW 22:55:35 79° SSW 23:00:11 10° ESE
Cosmos 2082 Rocket 3.8 22:53:59 10° NE 22:56:18 13° ENE 22:58:37 10° E
SJ 16-02 4.2 22:58:18 10° WSW 23:00:53 16° WNW 23:03:27 10° NW
SMAP 4.1 22:58:32 10° S 23:03:04 52° WSW 23:07:34 10° NNW
YAOGAN 1 3.8 23:00:33 10° ESE 23:03:36 19° ENE 23:06:38 10° NNE
ATLAS 5 CENTAUR R/B 2.6 22:58:48 10° N 23:04:34 55° ENE 23:11:15 10° SE
Cosmos 2034 Rocket 4.0 22:58:57 10° S 23:05:07 89° W 23:11:18 10° N
Cosmos 1315 Rocket 4.4 23:03:21 10° SE 23:05:32 15° E 23:07:10 12° ENE
IRS-P3 4.1 23:01:05 10° SSE 23:06:22 69° ENE 23:11:39 10° N
Iridium 51 4.4 23:07:12 10° SSE 23:09:43 28° E 23:12:13 10° NNE
Cosmos 968 Rocket 3.9 23:04:53 10° SSW 23:09:55 63° WNW 23:14:58 10° N
SL-4 R/B 2.1 23:10:46 10° NW 23:14:25 69° SW 23:18:16 10° SSE
SPOT 1/Viking Rocket 3.7 23:10:47 10° SSE 23:15:42 47° ENE 23:20:37 10° N
CZ-4 R/B 4.3 23:12:52 10° SSE 23:16:47 57° ENE 23:20:39 10° N
Resurs 1-3 4.3 23:14:50 10° SE 23:18:33 29° ENE 23:22:16 10° NNE
Ariane H10-3 2.1 23:16:31 10° WNW 23:18:50 50° N 23:21:13 18° ENE
Yuri Rocket 3.4 23:13:48 10° WSW 23:19:40 78° NNW 23:23:06 18° NE
Cosmos 1356 Rocket 4.1 23:19:29 10° SSE 23:22:47 27° E 23:24:26 20° NE
Tiangong -2.0 23:21:44 10° NW 23:24:53 76° SW 23:28:02 10° SE
Spot 4 Rocket 4.2 23:21:02 10° SSE 23:25:53 46° ENE 23:30:44 10° N
SWIFT 3.0 23:28:42 10° SW 23:31:46 31° SSE 23:33:05 23° ESE
RESURS DK-1 2.2 23:28:33 10° N 23:32:28 61° ENE 23:36:23 10° SSE
Cosmos 2279 Rocket 4.1 23:30:31 10° SSE 23:36:30 52° E 23:42:27 10° NNE
Cosmos 540 Rocket 3.5 23:31:43 10° NNW 23:36:47 78° WSW 23:41:51 10° S
Cosmos 1544 Rocket 4.5 23:36:32 10° SSE 23:39:48 27° ESE 23:39:48 27° ESE
Delta 2 Rocket 3.3 23:36:26 10° NW 23:40:18 48° NE 23:41:15 38° E
Ariane H10+ 3.4 23:27:48 10° WSW 23:41:33 49° S 23:43:54 22° ESE
ARIANE 3 DEB 1.8 23:40:15 10° W 23:42:39 59° SSW 23:42:39 59° SSW
Cosmos 1092 Rocket 4.4 23:37:48 10° NNE 23:43:25 38° E 23:49:01 10° SSE
SJ-7 4.0 23:40:05 10° SSE 23:43:46 86° ENE 23:47:26 10° N
NOAA 15 4.5 23:42:21 10° SSE 23:47:38 84° ENE 23:52:55 10° N
Cosmos 2026 Rocket 4.1 23:42:07 10° NNE 23:48:03 51° E 23:54:07 10° SSE
NOSS 3-2 (A) 4.1 23:48:40 10° SSE 23:51:44 23° SE 23:51:44 23° SE
NOAA 6 4.0 23:49:12 10° SSE 23:54:17 60° ENE 23:59:19 10° N
